QTR56P OTHH-OMSJ

Flight info

Callsign QTR56P
Flight time 0h 47m
Altitude 21000
Route ALSEM3E/34R ALSEM L305 EMOTA R784 GONVI
Aircraft A320/M-SDE3FGHIRWY/LB1

Departure

Time 2026-05-08 20:35
Airport Hamad International Airport (OTHH)

Arrival

Time 2026-05-08 21:22
Airport Sharjah International Airport (OMSJ)
Time Latitude Longitude Altitude Speed Heading
2026-05-08 20:05 25.26817 51.61239 9 ft 0 kts 293°
2026-05-08 20:24 25.26817 51.61240 9 ft 1 kts 294°
2026-05-08 20:24 25.26811 51.61255 9 ft 2 kts 293°
2026-05-08 20:24 25.26805 51.61270 9 ft 2 kts 293°
2026-05-08 20:25 25.26799 51.61286 9 ft 2 kts 293°
2026-05-08 20:25 25.26793 51.61301 9 ft 2 kts 293°
2026-05-08 20:25 25.26787 51.61316 9 ft 2 kts 293°
2026-05-08 20:25 25.26779 51.61331 9 ft 2 kts 325°
2026-05-08 20:26 25.26765 51.61337 9 ft 2 kts 358°
2026-05-08 20:26 25.26755 51.61336 9 ft 0 kts 22°
2026-05-08 20:26 25.26748 51.61332 9 ft 0 kts 25°
2026-05-08 20:28 25.26755 51.61336 9 ft 6 kts 25°
2026-05-08 20:28 25.26854 51.61382 9 ft 21 kts 21°
2026-05-08 20:29 25.26986 51.61453 9 ft 20 kts 43°
2026-05-08 20:29 25.27042 51.61575 9 ft 8 kts 69°
2026-05-08 20:29 25.27047 51.61590 9 ft 0 kts 68°
2026-05-08 20:30 25.27050 51.61597 9 ft 2 kts 68°
2026-05-08 20:30 25.27067 51.61650 9 ft 12 kts 83°
2026-05-08 20:30 25.26998 51.61725 9 ft 17 kts 158°
2026-05-08 20:31 25.26851 51.61791 9 ft 27 kts 159°
2026-05-08 20:31 25.26653 51.61879 9 ft 30 kts 159°
2026-05-08 20:31 25.26478 51.61955 9 ft 24 kts 157°
2026-05-08 20:31 25.26320 51.62026 9 ft 24 kts 158°
2026-05-08 20:32 25.26166 51.62092 9 ft 23 kts 158°
2026-05-08 20:32 25.26019 51.62157 9 ft 22 kts 158°
2026-05-08 20:32 25.25874 51.62220 9 ft 21 kts 159°
2026-05-08 20:32 25.25733 51.62280 9 ft 21 kts 159°
2026-05-08 20:33 25.25593 51.62342 9 ft 21 kts 158°
2026-05-08 20:33 25.25497 51.62384 9 ft 13 kts 159°
2026-05-08 20:33 25.25484 51.62468 9 ft 12 kts 68°
2026-05-08 20:33 25.25520 51.62561 9 ft 13 kts 67°
2026-05-08 20:34 25.25578 51.62638 9 ft 13 kts 22°
2026-05-08 20:34 25.25682 51.62616 9 ft 19 kts 338°
2026-05-08 20:34 25.25792 51.62568 9 ft 47 kts 338°
2026-05-08 20:35 25.26324 51.62332 10 ft 115 kts 338°
2026-05-08 20:35 25.27217 51.61941 180 ft 150 kts 338°
2026-05-08 20:35 25.28207 51.61480 692 ft 159 kts 340°
2026-05-08 20:35 25.29252 51.61418 1512 ft 151 kts 13°
2026-05-08 20:36 25.30174 51.61847 2165 ft 147 kts 21°
2026-05-08 20:36 25.31142 51.62387 2464 ft 163 kts 22°
2026-05-08 20:36 25.32213 51.62984 2771 ft 180 kts 23°
2026-05-08 20:36 25.33387 51.63622 3029 ft 202 kts 23°
2026-05-08 20:37 25.34730 51.64334 3398 ft 221 kts 22°
2026-05-08 20:37 25.36184 51.65093 3805 ft 240 kts 22°
2026-05-08 20:37 25.37749 51.65899 3984 ft 257 kts 22°
2026-05-08 20:37 25.39394 51.66742 3987 ft 259 kts 22°
2026-05-08 20:38 25.41032 51.67586 3989 ft 259 kts 22°
2026-05-08 20:38 25.42662 51.68435 4104 ft 265 kts 25°
2026-05-08 20:38 25.44091 51.69790 4768 ft 279 kts 57°
2026-05-08 20:38 25.44621 51.71826 5633 ft 286 kts 88°
2026-05-08 20:39 25.44308 51.73998 6441 ft 290 kts 103°
2026-05-08 20:39 25.43825 51.76163 7266 ft 294 kts 103°
2026-05-08 20:39 25.43357 51.78344 8102 ft 297 kts 103°
2026-05-08 20:39 25.42904 51.80561 8979 ft 300 kts 103°
2026-05-08 20:40 25.42457 51.82836 9766 ft 303 kts 102°
2026-05-08 20:40 25.42024 51.85104 10473 ft 309 kts 103°
2026-05-08 20:40 25.41573 51.87490 10872 ft 325 kts 103°
2026-05-08 20:40 25.41097 51.90012 11231 ft 341 kts 103°
2026-05-08 20:41 25.40616 51.92578 11812 ft 347 kts 103°
2026-05-08 20:41 25.40125 51.95211 12523 ft 349 kts 103°
2026-05-08 20:41 25.39639 51.97815 13255 ft 351 kts 104°
2026-05-08 20:41 25.39138 52.00478 13915 ft 354 kts 104°
2026-05-08 20:42 25.38639 52.03130 14532 ft 357 kts 104°
2026-05-08 20:42 25.38132 52.05815 15130 ft 361 kts 103°
2026-05-08 20:42 25.37617 52.08548 15726 ft 364 kts 103°
2026-05-08 20:42 25.37101 52.11286 16301 ft 367 kts 103°
2026-05-08 20:43 25.36581 52.14048 16850 ft 370 kts 103°
2026-05-08 20:43 25.36058 52.16821 17386 ft 374 kts 103°
2026-05-08 20:43 25.35718 52.19674 17904 ft 379 kts 94°
2026-05-08 20:43 25.35806 52.22611 18440 ft 384 kts 84°
2026-05-08 20:44 25.36266 52.25508 19008 ft 386 kts 79°
2026-05-08 20:44 25.36821 52.28389 19553 ft 388 kts 79°
2026-05-08 20:44 25.37393 52.31295 20068 ft 391 kts 79°
2026-05-08 20:44 25.37971 52.34267 20556 ft 394 kts 79°
2026-05-08 20:45 25.38541 52.37237 20798 ft 396 kts 80°
2026-05-08 20:45 25.38917 52.39214 20812 ft 396 kts 80°
2026-05-08 20:45 25.39661 52.43154 20819 ft 395 kts 80°
2026-05-08 20:45 25.40226 52.46157 20823 ft 395 kts 80°
2026-05-08 20:46 25.40777 52.49095 20825 ft 395 kts 80°
2026-05-08 20:46 25.41339 52.52098 20825 ft 395 kts 80°
2026-05-08 20:46 25.41888 52.55037 20820 ft 395 kts 80°
2026-05-08 20:46 25.42450 52.58049 20826 ft 404 kts 80°
2026-05-08 20:47 25.43027 52.61156 20828 ft 420 kts 80°
2026-05-08 20:47 25.43618 52.64335 20828 ft 436 kts 80°
2026-05-08 20:47 25.44237 52.67665 20826 ft 450 kts 80°
2026-05-08 20:47 25.44883 52.71143 20827 ft 464 kts 80°
2026-05-08 20:48 25.45540 52.74678 20823 ft 475 kts 80°
2026-05-08 20:48 25.46207 52.78262 20818 ft 478 kts 80°
2026-05-08 20:48 25.46873 52.81840 20822 ft 478 kts 80°
2026-05-08 20:48 25.47619 52.85389 20823 ft 479 kts 77°
2026-05-08 20:49 25.48482 52.88953 20823 ft 479 kts 76°
2026-05-08 20:49 25.49358 52.92498 20819 ft 479 kts 76°
2026-05-08 20:49 25.50242 52.96063 20823 ft 479 kts 76°
2026-05-08 20:49 25.51122 52.99620 20822 ft 479 kts 76°
2026-05-08 20:50 25.51985 53.03120 20725 ft 476 kts 76°
2026-05-08 20:50 25.52864 53.06697 20481 ft 478 kts 76°
2026-05-08 20:50 25.53727 53.10225 20106 ft 474 kts 76°
2026-05-08 20:50 25.54587 53.13739 19396 ft 476 kts 76°
2026-05-08 20:51 25.55441 53.17238 18960 ft 475 kts 76°
2026-05-08 20:51 25.56295 53.20727 18803 ft 459 kts 76°
2026-05-08 20:51 25.57111 53.24063 18801 ft 452 kts 76°
2026-05-08 20:51 25.57931 53.27432 18796 ft 451 kts 76°
2026-05-08 20:52 25.58748 53.30790 18794 ft 450 kts 76°
2026-05-08 20:52 25.59561 53.34139 18794 ft 450 kts 76°
2026-05-08 20:52 25.60364 53.37448 18794 ft 450 kts 76°
2026-05-08 20:52 25.61173 53.40783 18792 ft 449 kts 76°
2026-05-08 20:53 25.61986 53.44130 18790 ft 449 kts 76°
2026-05-08 20:53 25.62794 53.47461 18790 ft 448 kts 76°
2026-05-08 20:53 25.63601 53.50785 18788 ft 448 kts 76°
2026-05-08 20:53 25.64409 53.54127 18787 ft 448 kts 76°
2026-05-08 20:54 25.65206 53.57429 18786 ft 448 kts 76°
2026-05-08 20:54 25.66013 53.60772 18783 ft 448 kts 76°
2026-05-08 20:54 25.66818 53.64116 18783 ft 448 kts 76°
2026-05-08 20:54 25.67613 53.67419 18779 ft 448 kts 77°
2026-05-08 20:55 25.68419 53.70769 18779 ft 447 kts 77°
2026-05-08 20:55 25.69210 53.74067 18779 ft 447 kts 77°
2026-05-08 20:55 25.70012 53.77407 18777 ft 447 kts 77°
2026-05-08 20:55 25.70813 53.80751 18778 ft 447 kts 77°
2026-05-08 20:56 25.71605 53.84057 18672 ft 442 kts 77°
2026-05-08 20:56 25.72375 53.87281 18134 ft 436 kts 77°
2026-05-08 20:56 25.73147 53.90526 17428 ft 434 kts 77°
2026-05-08 20:56 25.73907 53.93714 16805 ft 429 kts 77°
2026-05-08 20:57 25.74661 53.96880 16154 ft 425 kts 77°
2026-05-08 20:57 25.75426 54.00048 15461 ft 423 kts 75°
2026-05-08 20:57 25.76327 54.03139 14775 ft 420 kts 72°
2026-05-08 20:57 25.77281 54.06149 14126 ft 417 kts 72°
2026-05-08 20:58 25.78257 54.09187 13461 ft 414 kts 72°
2026-05-08 20:58 25.79211 54.12159 12789 ft 412 kts 72°
2026-05-08 20:58 25.80168 54.15155 12125 ft 409 kts 72°
2026-05-08 20:58 25.81110 54.18115 11466 ft 407 kts 72°
2026-05-08 20:59 25.82035 54.21026 10815 ft 405 kts 71°
2026-05-08 20:59 25.82973 54.23978 10204 ft 401 kts 71°
2026-05-08 20:59 25.83844 54.26881 9705 ft 400 kts 76°
2026-05-08 20:59 25.83997 54.29943 9193 ft 396 kts 99°
2026-05-08 21:00 25.83417 54.32911 8877 ft 392 kts 105°
2026-05-08 21:00 25.82717 54.35800 8892 ft 394 kts 106°
2026-05-08 21:00 25.82024 54.38760 8905 ft 394 kts 105°
2026-05-08 21:00 25.81377 54.41723 8914 ft 393 kts 104°
2026-05-08 21:01 25.80775 54.44629 8915 ft 384 kts 103°
2026-05-08 21:01 25.80199 54.47498 8918 ft 383 kts 103°
2026-05-08 21:01 25.79635 54.50363 8922 ft 383 kts 103°
2026-05-08 21:01 25.79073 54.53241 8952 ft 382 kts 103°
2026-05-08 21:02 25.78507 54.56166 8965 ft 383 kts 103°
2026-05-08 21:02 25.77949 54.59051 8971 ft 383 kts 103°
2026-05-08 21:02 25.77392 54.61928 8975 ft 384 kts 103°
2026-05-08 21:02 25.76832 54.64825 8970 ft 384 kts 103°
2026-05-08 21:03 25.76277 54.67694 8971 ft 384 kts 103°
2026-05-08 21:03 25.75712 54.70594 8973 ft 384 kts 103°
2026-05-08 21:03 25.75153 54.73480 8973 ft 384 kts 103°
2026-05-08 21:03 25.74589 54.76380 8971 ft 384 kts 103°
2026-05-08 21:04 25.74026 54.79276 8974 ft 384 kts 103°
2026-05-08 21:04 25.73463 54.82165 8975 ft 384 kts 103°
2026-05-08 21:04 25.72905 54.85025 8975 ft 384 kts 103°
2026-05-08 21:04 25.72339 54.87931 8972 ft 384 kts 103°
2026-05-08 21:05 25.71773 54.90820 8972 ft 384 kts 103°
2026-05-08 21:05 25.71194 54.93709 8969 ft 384 kts 105°
2026-05-08 21:05 25.70414 54.96491 8836 ft 377 kts 110°
2026-05-08 21:05 25.69537 54.99215 8315 ft 375 kts 110°
2026-05-08 21:06 25.68637 55.01908 8015 ft 369 kts 112°
2026-05-08 21:06 25.67559 55.04437 7968 ft 350 kts 119°
2026-05-08 21:06 25.66388 55.06736 7971 ft 344 kts 121°
2026-05-08 21:06 25.65185 55.09024 7967 ft 343 kts 121°
2026-05-08 21:07 25.63977 55.11322 7970 ft 343 kts 121°
2026-05-08 21:07 25.62795 55.13588 7970 ft 343 kts 120°
2026-05-08 21:07 25.61605 55.15877 7967 ft 342 kts 120°
2026-05-08 21:07 25.60411 55.18178 7967 ft 341 kts 120°
2026-05-08 21:08 25.59239 55.20436 7969 ft 342 kts 120°
2026-05-08 21:08 25.58048 55.22729 7971 ft 341 kts 120°
2026-05-08 21:08 25.56870 55.25008 7966 ft 341 kts 120°
2026-05-08 21:08 25.55703 55.27268 7837 ft 333 kts 120°
2026-05-08 21:09 25.54569 55.29464 7646 ft 323 kts 120°
2026-05-08 21:09 25.53472 55.31588 7470 ft 313 kts 120°
2026-05-08 21:09 25.52401 55.33640 7316 ft 304 kts 120°
2026-05-08 21:09 25.51349 55.35643 7148 ft 296 kts 120°
2026-05-08 21:10 25.50333 55.37580 6901 ft 292 kts 120°
2026-05-08 21:10 25.49312 55.39526 6573 ft 291 kts 120°
2026-05-08 21:10 25.48306 55.41442 6266 ft 289 kts 120°
2026-05-08 21:10 25.47279 55.43344 5958 ft 288 kts 120°
2026-05-08 21:11 25.46242 55.45235 5651 ft 286 kts 121°
2026-05-08 21:11 25.45206 55.47122 5322 ft 285 kts 121°
2026-05-08 21:11 25.44152 55.48991 4995 ft 285 kts 122°
2026-05-08 21:11 25.43075 55.50813 4664 ft 285 kts 123°
2026-05-08 21:12 25.41996 55.52622 4465 ft 279 kts 123°
2026-05-08 21:12 25.40939 55.54400 4322 ft 272 kts 123°
2026-05-08 21:12 25.39916 55.56124 4183 ft 264 kts 123°
2026-05-08 21:12 25.38924 55.57800 4049 ft 257 kts 123°
2026-05-08 21:13 25.37955 55.59443 3915 ft 250 kts 122°
2026-05-08 21:13 25.37053 55.61045 3775 ft 244 kts 121°
2026-05-08 21:13 25.36178 55.62633 3554 ft 242 kts 121°
2026-05-08 21:13 25.35298 55.64237 3290 ft 242 kts 121°
2026-05-08 21:14 25.34432 55.65808 3040 ft 242 kts 122°
2026-05-08 21:14 25.33553 55.67397 2798 ft 241 kts 122°
2026-05-08 21:14 25.32687 55.68958 2586 ft 239 kts 122°
2026-05-08 21:14 25.31819 55.70521 2505 ft 236 kts 122°
2026-05-08 21:15 25.30958 55.72072 2501 ft 233 kts 122°
2026-05-08 21:15 25.30127 55.73566 2496 ft 226 kts 123°
2026-05-08 21:15 25.29301 55.75052 2501 ft 226 kts 124°
2026-05-08 21:15 25.28253 55.76308 2488 ft 222 kts 156°
2026-05-08 21:16 25.26798 55.76550 2494 ft 213 kts 199°
2026-05-08 21:16 25.25583 55.75699 2498 ft 202 kts 234°
2026-05-08 21:16 25.24869 55.74416 2371 ft 194 kts 245°
2026-05-08 21:16 25.24233 55.73121 2264 ft 189 kts 243°
2026-05-08 21:17 25.23580 55.71883 2152 ft 184 kts 242°
2026-05-08 21:17 25.22990 55.70667 2017 ft 178 kts 259°
2026-05-08 21:17 25.23084 55.69351 2016 ft 167 kts 290°
2026-05-08 21:17 25.23587 55.68238 2064 ft 160 kts 299°
2026-05-08 21:18 25.24186 55.67202 2025 ft 158 kts 301°
2026-05-08 21:18 25.24791 55.66191 2011 ft 157 kts 301°
2026-05-08 21:18 25.25382 55.65186 2008 ft 157 kts 301°
2026-05-08 21:18 25.25978 55.64160 2007 ft 157 kts 301°
2026-05-08 21:19 25.26557 55.63152 2002 ft 155 kts 301°
2026-05-08 21:19 25.27124 55.62165 1871 ft 148 kts 301°
2026-05-08 21:19 25.27663 55.61223 1689 ft 142 kts 300°
2026-05-08 21:19 25.28180 55.60324 1508 ft 135 kts 300°
2026-05-08 21:20 25.28680 55.59449 1337 ft 135 kts 300°
2026-05-08 21:20 25.29190 55.58560 1168 ft 136 kts 300°
2026-05-08 21:20 25.29695 55.57682 1002 ft 134 kts 300°
2026-05-08 21:20 25.30192 55.56819 827 ft 132 kts 300°
2026-05-08 21:21 25.30686 55.55977 642 ft 132 kts 300°
2026-05-08 21:21 25.31182 55.55117 461 ft 131 kts 299°
2026-05-08 21:21 25.31660 55.54259 292 ft 130 kts 299°
2026-05-08 21:21 25.32149 55.53421 161 ft 130 kts 300°
2026-05-08 21:22 25.32612 55.52600 106 ft 109 kts 302°
2026-05-08 21:22 25.32935 55.52039 109 ft 77 kts 302°
2026-05-08 21:22 25.33155 55.51636 101 ft 36 kts 292°
2026-05-08 21:22 25.33197 55.51408 102 ft 18 kts 274°
2026-05-08 21:23 25.33203 55.51295 103 ft 7 kts 273°
2026-05-08 21:23 25.33207 55.51224 101 ft 10 kts 274°
2026-05-08 21:23 25.33210 55.51164 100 ft 0 kts 273°
2026-05-08 21:23 25.33210 55.51156 100 ft 1 kts 273°
2026-05-08 21:24 25.33213 55.51130 100 ft 7 kts 282°
2026-05-08 21:24 25.33254 55.51036 100 ft 17 kts 303°
2026-05-08 21:24 25.33298 55.50903 100 ft 19 kts 238°
2026-05-08 21:24 25.33178 55.50844 97 ft 19 kts 150°
2026-05-08 21:25 25.33087 55.50980 98 ft 24 kts 124°
2026-05-08 21:25 25.32988 55.51150 97 ft 27 kts 124°
2026-05-08 21:25 25.32883 55.51327 98 ft 15 kts 120°
2026-05-08 21:25 25.32832 55.51424 97 ft 17 kts 121°
2026-05-08 21:26 25.32759 55.51547 97 ft 21 kts 123°
2026-05-08 21:26 25.32673 55.51693 98 ft 24 kts 123°
2026-05-08 21:26 25.32581 55.51859 99 ft 26 kts 122°
2026-05-08 21:26 25.32478 55.52037 101 ft 28 kts 122°
2026-05-08 21:27 25.32370 55.52226 102 ft 23 kts 122°
2026-05-08 21:27 25.32317 55.52315 103 ft 14 kts 131°
2026-05-08 21:27 25.32266 55.52313 103 ft 0 kts 212°